GW5730 Weather Reports


time (UTC)temp
C
wind
direction
speed
KPH
gust
KPH
rain 1hr
cm
rain 24hr
cm
rain mn
cm
humidity
%
barometer
mb
20260906101437 20 9 0.0 0.0 0.00 0.00 0.00 95 1003.9
20260906095937 21 17 0.0 0.0 0.00 0.00 0.00 95 1003.8
20260906094437 21 347 0.0 0.0 0.00 0.00 0.00 94 1003.8
20260906092937 21 257 0.0 0.0 0.00 0.00 0.00 94 1003.8
20260906091437 21 23 1.6 0.0 0.00 0.00 0.00 94 1003.8
20260906085936 21 25 3.2 0.0 0.00 0.00 0.00 94 1003.7
20260906084437 21 211 1.6 0.0 0.00 0.00 0.00 94 1003.7
20260906082937 21 210 0.0 0.0 0.00 0.00 0.00 94 1003.7
20260906081454 21 211 0.0 0.0 0.00 0.00 0.00 94 1003.7
20260906075936 21 211 0.0 0.0 0.00 0.00 0.00 94 1003.9
20260906074437 21 93 0.0 0.0 0.00 0.00 0.00 93 1003.9
20260906072936 21 142 3.2 0.0 0.00 0.00 0.00 93 1003.9
20260906071436 21 106 3.2 0.0 0.00 0.00 0.00 93 1003.9
20260906065953 21 101 1.6 0.0 0.00 0.00 0.00 93 1004.1
20260906064437 21 54 0.0 0.0 0.00 0.00 0.00 93 1004.1
20260906062936 21 354 0.0 0.0 0.00 0.00 0.00 93 1004.1
20260906061437 21 354 0.0 0.0 0.00 0.00 0.00 93 1004.1
20260906055954 21 354 0.0 0.0 0.00 0.00 0.08 93 1004.3
20260906054436 21 354 0.0 0.0 0.00 0.00 0.08 93 1004.3
20260906052937 21 52 0.0 0.0 0.00 0.00 0.08 92 1004.3
20260906051437 21 33 3.2 0.0 0.00 0.00 0.08 92 1004.3
20260906045937 21 97 3.2 0.0 0.00 0.00 0.08 92 1004.5
20260906044436 22 342 1.6 0.0 0.00 0.00 0.08 92 1004.5
20260906042937 22 150 0.0 0.0 0.00 0.00 0.08 92 1004.5
20260906041436 22 27 1.6 0.0 0.00 0.00 0.08 92 1004.5
20260906035936 22 16 1.6 0.0 0.00 0.00 0.08 91 1005.0
20260906034440 22 246 1.6 0.0 0.00 0.00 0.08 91 1005.0
20260906032953 22 322 0.0 0.0 0.00 0.00 0.08 91 1005.0
20260906031436 22 9 3.2 0.0 0.00 0.00 0.08 91 1005.0
20260906025936 22 354 1.6 0.0 0.00 0.00 0.08 90 1004.6
20260906024454 22 236 0.0 0.0 0.00 0.00 0.08 91 1004.6
20260906022936 22 262 0.0 0.0 0.00 0.00 0.08 90 1004.6
20260906021437 22 106 6.4 0.0 0.00 0.00 0.08 90 1004.6
20260906015937 22 228 9.7 0.0 0.00 0.00 0.08 90 1003.6
20260906014436 23 254 1.6 0.0 0.00 0.00 0.08 89 1003.6
20260906012936 23 60 4.8 0.0 0.00 0.00 0.08 89 1003.6
20260906011436 23 33 9.7 0.0 0.00 0.00 0.08 88 1003.6
20260906005936 23 13 0.0 0.0 0.00 0.00 0.08 87 1004.3
20260906004436 23 283 3.2 0.0 0.00 0.00 0.08 87 1004.3
20260906002937 23 238 0.0 0.0 0.00 0.00 0.08 85 1004.3
20260906001436 24 63 4.8 0.0 0.00 0.00 0.08 83 1004.3
20260905235937 24 299 4.8 0.0 0.00 0.00 0.08 83 1004.0
20260905234436 24 11 3.2 0.0 0.00 0.00 0.08 79 1004.0
20260905232936 25 65 25.7 0.0 0.00 0.00 0.03 73 1004.0
20260905231437 28 41 49.9 0.0 0.00 0.00 0.00 60 1004.0
20260905225937 31 125 1.6 0.0 0.00 0.00 0.00 63 1002.9
20260905224454 32 214 1.6 0.0 0.00 0.00 0.00 57 1002.9
20260905222937 33 224 9.7 0.0 0.00 0.00 0.00 53 1002.9
20260905221437 33 230 8.0 0.0 0.00 0.00 0.00 50 1002.9
20260905215954 34 225 16.1 0.0 0.00 0.00 0.00 48 1002.9
20260905214437 35 253 9.7 0.0 0.00 0.00 0.00 46 1002.9
20260905212937 35 258 12.9 0.0 0.00 0.00 0.00 45 1002.9
20260905211437 35 174 1.6 0.0 0.00 0.00 0.00 44 1002.9
20260905205936 35 228 4.8 0.0 0.00 0.00 0.00 46 1003.0
20260905204436 35 223 12.9 0.0 0.00 0.00 0.00 45 1003.0
20260905202937 34 241 14.5 0.0 0.00 0.00 0.00 46 1003.0
20260905201454 34 172 4.8 0.0 0.00 0.00 0.00 48 1003.0
20260905195936 34 58 4.8 0.0 0.00 0.00 0.00 47 1004.0
20260905194437 35 110 8.0 0.0 0.00 0.00 0.00 45 1004.0
20260905192936 34 127 6.4 0.0 0.00 0.00 0.00 44 1004.0
20260905191436 34 133 4.8 0.0 0.00 0.00 0.00 48 1004.0
20260905185937 33 222 11.3 0.0 0.00 0.00 0.00 48 1005.0
20260905184436 33 168 11.3 0.0 0.00 0.00 0.00 48 1005.0
20260905182936 33 101 9.7 0.0 0.00 0.00 0.00 52 1005.0
20260905181436 33 211 8.0 0.0 0.00 0.00 0.00 56 1005.0
20260905175936 32 198 4.8 0.0 0.00 0.00 0.00 59 1005.6
20260905174454 32 151 14.5 0.0 0.00 0.00 0.00 60 1005.6
20260905172936 32 342 4.8 0.0 0.00 0.00 0.00 61 1005.6
20260905171453 31 126 4.8 0.0 0.00 0.00 0.00 63 1005.6
20260905165936 31 206 14.5 0.0 0.00 0.00 0.00 66 1006.8
20260905164453 30 130 8.0 0.0 0.00 0.00 0.00 69 1006.8
20260905162936 30 246 0.0 0.0 0.00 0.00 0.00 72 1006.8
20260905161437 30 324 6.4 0.0 0.00 0.00 0.00 74 1006.8
20260905155937 29 0 0.0 0.0 0.00 0.00 0.00 77 1007.2
20260905154437 28 193 8.0 0.0 0.00 0.00 0.00 79 1007.2
20260905152936 28 267 4.8 0.0 0.00 0.00 0.00 80 1007.2
20260905151436 27 235 1.6 0.0 0.00 0.00 0.00 82 1007.2
20260905145936 27 229 8.0 0.0 0.00 0.00 0.00 85 1007.7
20260905144437 26 5 4.8 0.0 0.00 0.00 0.00 87 1007.7
20260905142936 26 340 6.4 0.0 0.00 0.00 0.00 88 1007.7
20260905141437 26 293 1.6 0.0 0.00 0.00 0.00 90 1007.7
20260905135937 25 341 0.0 0.0 0.00 0.00 0.00 92 1007.7
20260905134454 25 24 6.4 0.0 0.00 0.00 0.00 93 1007.7
20260905132936 24 267 0.0 0.0 0.00 0.00 0.00 95 1007.7
20260905131437 24 340 0.0 0.0 0.00 0.00 0.00 95 1007.7
20260905125937 24 36 3.2 0.0 0.00 0.00 0.00 95 1007.3
20260905124437 24 9 8.0 0.0 0.00 0.00 0.00 95 1007.3
20260905122936 24 321 0.0 0.0 0.00 0.00 0.00 95 1007.3
20260905121436 24 29 1.6 0.0 0.00 0.00 0.00 95 1007.3
20260905115953 24 267 1.6 0.0 0.00 0.00 0.00 95 1007.0
20260905114436 24 207 4.8 0.0 0.00 0.00 0.00 95 1007.0
20260905112936 24 232 0.0 0.0 0.00 0.00 0.00 95 1007.0
20260905111437 24 17 0.0 0.0 0.00 0.00 0.00 95 1007.0
20260905105936 24 208 1.6 0.0 0.00 0.00 0.00 95 1006.6
20260905104436 23 271 1.6 0.0 0.00 0.00 0.00 95 1006.6
20260905102937 23 252 1.6 0.0 0.00 0.00 0.00 95 1006.6